Freeport, IL

1:32 AM CDT on March 24, 2017 (GMT -0500)
Albertus

Weather History for KFEP - April, 2013

Change the Weather History Date:

Saturday, April 6, 2013

  Actual Average Record
Temperature  
Mean Temperature 52 °F -  
Max Temperature 67 °F 54 °F 80 °F (1988)
Min Temperature 36 °F 32 °F 10 °F (1982)
Degree Days  
Heating Degree Days 14    
Growing Degree Days 2 (Base 50)    
Moisture  
Dew Point 35 °F    
Average Humidity 60    
Maximum Humidity 87    
Minimum Humidity 30    
Precipitation  
Precipitation 0.02 in - - ()
Sea Level Pressure  
Sea Level Pressure 29.81 in    
Wind  
Wind Speed 15 mph (SE)    
Max Wind Speed 34 mph    
Max Gust Speed 40 mph    
Visibility 10 miles    
Events Rain , Thunderstorm    
Averages and records for this station are not official NWS values.
T = Trace of Precipitation, MM = Missing Value Source: NWS Daily Summary

Daily Weather History Graph

Daily Weather History Graph

Search for Another Location

Airport or City:

Trip Planner

Search our weather history database for the weather conditions in past years. The results will help you decide how hot, cold, wet, or windy it might be!

Date:

Astronomy

Apr. 06, 2013 Rise Set
Actual Time 6:31 AM CDT 7:30 PM CDT
Civil Twilight 6:03 AM CDT 7:58 PM CDT
Nautical Twilight 5:29 AM CDT 8:32 PM CDT
Astronomical Twilight 4:53 AM CDT 9:08 PM CDT
Moon 4:19 AM CDT (4/6) 3:55 PM CDT (4/6)
Length of Visible Light 13h 55m
Length of Day
12h 58m
Waning Crescent, 15% of the Moon is Illuminated
Apr 6
Waning Crescent
Apr 10
New
Apr 18
First Quarter
Apr 25
Full
May 2
Last Quarter

Hourly Weather History & Observations

Time (CDT) Temp. Windchill Dew Point Humidity Pressure Visibility Wind Dir Wind Speed Gust Speed Precip Events Conditions
12:15 AM 38.7 °F 31.4 °F 25.2 °F 58% 30.11 in 10.0 mi East 11.5 mph - N/A   Scattered Clouds
12:35 AM 38.7 °F 30.5 °F 24.6 °F 57% 30.10 in 10.0 mi East 13.8 mph - N/A   Scattered Clouds
12:55 AM 38.7 °F 30.9 °F 25.5 °F 59% 30.09 in 10.0 mi East 12.7 mph - N/A   Scattered Clouds
1:15 AM 38.7 °F 30.5 °F 24.4 °F 57% 30.08 in 10.0 mi East 13.8 mph - N/A   Scattered Clouds
1:35 AM 38.7 °F 30.5 °F 23.5 °F 55% 30.07 in 10.0 mi East 13.8 mph - N/A   Mostly Cloudy
1:55 AM 38.7 °F 31.4 °F 22.8 °F 53% 30.08 in 10.0 mi East 11.5 mph - N/A   Mostly Cloudy
2:15 AM 38.7 °F 30.5 °F 22.5 °F 52% 30.06 in 10.0 mi East 13.8 mph - N/A   Scattered Clouds
2:35 AM 37.2 °F 28.7 °F 22.1 °F 54% 30.06 in 10.0 mi East 13.8 mph - N/A   Scattered Clouds
2:55 AM 36.1 °F 27.7 °F 22.3 °F 57% 30.05 in 10.0 mi East 12.7 mph - N/A   Scattered Clouds
3:15 AM 36.1 °F 27.3 °F 23.0 °F 59% 30.04 in 10.0 mi East 13.8 mph - N/A   Clear
3:35 AM 36.1 °F 27.7 °F 24.4 °F 63% 30.03 in 10.0 mi East 12.7 mph - N/A   Scattered Clouds
3:55 AM 36.1 °F 28.7 °F 25.5 °F 65% 30.03 in 10.0 mi East 10.4 mph - N/A   Scattered Clouds
4:15 AM 36.1 °F 28.2 °F 25.2 °F 64% 30.04 in 10.0 mi East 11.5 mph 16.1 mph N/A   Mostly Cloudy
4:35 AM 36.1 °F 28.7 °F 25.0 °F 64% 30.03 in 10.0 mi East 10.4 mph - N/A   Scattered Clouds
4:55 AM 36.1 °F 28.7 °F 24.8 °F 63% 30.02 in 10.0 mi East 10.4 mph - N/A   Mostly Cloudy
5:15 AM 36.1 °F 28.7 °F 25.2 °F 64% 30.01 in 10.0 mi East 10.4 mph - N/A   Mostly Cloudy
5:35 AM 36.1 °F 29.9 °F 25.2 °F 64% 30.01 in 10.0 mi East 8.1 mph - N/A   Mostly Cloudy
5:55 AM 36.1 °F 29.3 °F 25.7 °F 66% 30.00 in 10.0 mi East 9.2 mph - N/A   Mostly Cloudy
6:15 AM 36.1 °F 28.7 °F 25.7 °F 66% 29.99 in 10.0 mi East 10.4 mph - N/A   Mostly Cloudy
6:35 AM 36.1 °F 28.7 °F 26.2 °F 67% 29.97 in 10.0 mi East 10.4 mph - N/A   Mostly Cloudy
6:55 AM 36.1 °F 26.9 °F 26.6 °F 68% 29.96 in 10.0 mi ESE 15.0 mph 19.6 mph N/A   Scattered Clouds
7:15 AM 38.7 °F 30.5 °F 28.4 °F 67% 29.96 in 10.0 mi ESE 13.8 mph - N/A   Scattered Clouds
7:35 AM 38.7 °F 29.1 °F 28.2 °F 66% 29.95 in 10.0 mi ESE 18.4 mph 21.9 mph N/A   Clear
7:55 AM 38.7 °F 29.8 °F 28.2 °F 66% 29.93 in 10.0 mi ESE 16.1 mph 25.3 mph N/A   Clear
8:15 AM 38.7 °F 29.1 °F 28.2 °F 66% 29.92 in 10.0 mi ESE 18.4 mph 24.2 mph N/A   Clear
8:35 AM 40.6 °F 33.0 °F 29.3 °F 64% 29.90 in 10.0 mi ESE 13.8 mph 20.7 mph N/A   Clear
8:55 AM 41.2 °F 31.9 °F 29.1 °F 62% 29.88 in 10.0 mi SE 20.7 mph 26.5 mph N/A   Scattered Clouds
9:15 AM 41.9 °F 33.7 °F 30.9 °F 65% 29.87 in 10.0 mi SE 17.3 mph - N/A   Light Drizzle
9:35 AM 43.7 °F 34.7 °F 30.6 °F 60% 29.86 in 10.0 mi SE 23.0 mph - N/A   Scattered Clouds
9:55 AM 45.0 °F 36.6 °F 31.5 °F 59% 29.86 in 10.0 mi SE 21.9 mph 25.3 mph N/A   Scattered Clouds
10:15 AM 45.0 °F 37.1 °F 32.0 °F 60% 29.85 in 10.0 mi SE 19.6 mph - N/A   Clear
10:35 AM 46.4 °F 39.5 °F 32.4 °F 58% 29.84 in 10.0 mi SE 17.3 mph 25.3 mph N/A   Clear
10:55 AM 47.3 °F - 33.1 °F 58% 29.82 in 10.0 mi SE 19.6 mph 23.0 mph N/A   Scattered Clouds
11:15 AM 51.4 °F - 34.5 °F 52% 29.79 in 10.0 mi SE 23.0 mph 29.9 mph N/A   Clear
11:35 AM 54.0 °F - 36.5 °F 52% 29.78 in 10.0 mi SE 17.3 mph 29.9 mph N/A   Clear
11:55 AM 54.0 °F - 34.3 °F 47% 29.76 in 10.0 mi SE 21.9 mph 29.9 mph N/A   Clear
12:15 PM 56.5 °F - 36.1 °F 47% 29.75 in 10.0 mi SE 23.0 mph 33.4 mph N/A   Clear
12:35 PM 63.5 °F - 37.2 °F 38% 29.73 in 10.0 mi South 34.5 mph 40.3 mph N/A   Clear
12:55 PM 64.0 °F - 35.2 °F 34% 29.71 in 10.0 mi SSE 34.5 mph 40.3 mph N/A   Clear
1:15 PM 64.9 °F - 35.8 °F 34% 29.72 in 10.0 mi South 27.6 mph 38.0 mph N/A   Clear
1:35 PM 64.4 °F - 36.1 °F 35% 29.71 in 10.0 mi South 26.5 mph 35.7 mph N/A   Clear
1:55 PM 65.3 °F - 34.5 °F 32% 29.70 in 10.0 mi South 25.3 mph 32.2 mph N/A   Clear
2:15 PM 64.0 °F - 35.6 °F 35% 29.69 in 10.0 mi South 18.4 mph - N/A   Clear
2:55 PM 64.0 °F - 37.4 °F 37% 29.66 in 10.0 mi South 12.7 mph - N/A   Scattered Clouds
3:15 PM 64.0 °F - 34.7 °F 34% 29.64 in 10.0 mi South 19.6 mph 27.6 mph N/A   Clear
3:35 PM 64.2 °F - 34.7 °F 33% 29.64 in 10.0 mi South 17.3 mph 24.2 mph N/A   Clear
3:55 PM 64.4 °F - 36.0 °F 35% 29.63 in 10.0 mi South 16.1 mph 21.9 mph N/A   Clear
4:15 PM 67.5 °F - 34.9 °F 30% 29.62 in 10.0 mi South 21.9 mph 26.5 mph N/A   Clear
4:35 PM 66.2 °F - 33.8 °F 30% 29.62 in 10.0 mi South 18.4 mph 29.9 mph N/A   Clear
4:55 PM 65.8 °F - 34.9 °F 32% 29.62 in 10.0 mi South 15.0 mph 24.2 mph N/A   Clear
5:15 PM 67.1 °F - 35.8 °F 31% 29.61 in 10.0 mi South 18.4 mph 29.9 mph N/A   Scattered Clouds
5:35 PM 65.7 °F - 39.6 °F 38% 29.62 in 10.0 mi SW 10.4 mph 25.3 mph N/A   Mostly Cloudy
5:55 PM 63.0 °F - 44.6 °F 51% 29.62 in 10.0 mi SSW 15.0 mph 20.7 mph N/A Rain Light Rain
6:15 PM 59.4 °F - 46.8 °F 63% 29.62 in 10.0 mi SSW 20.7 mph 28.8 mph N/A   Light Drizzle
6:35 PM 58.5 °F - 50.7 °F 75% 29.63 in 7.0 mi SSW 13.8 mph 23.0 mph 0.01 in Rain Light Rain
6:55 PM 57.2 °F - 50.0 °F 77% 29.62 in 7.0 mi SSW 13.8 mph - N/A Rain Rain
7:15 PM 56.5 °F - 50.0 °F 79% 29.62 in 10.0 mi SSW 10.4 mph - N/A   Overcast
7:35 PM 56.5 °F - 50.2 °F 79% 29.61 in 10.0 mi South 11.5 mph - N/A Rain Light Rain
7:55 PM 56.5 °F - 50.0 °F 79% 29.61 in 10.0 mi SSW 8.1 mph - N/A   Overcast
8:15 PM 54.5 °F - 49.1 °F 82% 29.60 in 10.0 mi South 8.1 mph - N/A Rain Light Rain
8:35 PM 54.0 °F - 49.1 °F 84% 29.59 in 10.0 mi South 10.4 mph - N/A Thunderstorm Overcast
8:55 PM 55.4 °F - 49.3 °F 80% 29.61 in 10.0 mi South 9.2 mph - N/A Rain Light Rain
9:15 PM 56.5 °F - 50.0 °F 79% 29.60 in 10.0 mi SSW 16.1 mph 19.6 mph N/A Rain , Thunderstorm Light Thunderstorms and Rain
9:35 PM 55.4 °F - 50.5 °F 84% 29.61 in 7.0 mi SSW 17.3 mph 24.2 mph 0.01 in Rain , Thunderstorm Rain
9:55 PM 55.0 °F - 50.4 °F 84% 29.61 in - SSW 13.8 mph - N/A Rain , Thunderstorm Light Thunderstorms and Rain
10:15 PM 55.0 °F - 50.2 °F 84% 29.61 in 10.0 mi South 15.0 mph - N/A   Overcast
10:35 PM 54.0 °F - 49.6 °F 85% 29.62 in 10.0 mi SSW 13.8 mph - N/A   Mostly Cloudy
10:55 PM 54.0 °F - 50.0 °F 86% 29.62 in 10.0 mi SW 10.4 mph - N/A   Scattered Clouds
11:15 PM 54.0 °F - 50.0 °F 86% 29.64 in 10.0 mi WSW 15.0 mph 19.6 mph N/A   Scattered Clouds
11:35 PM 54.0 °F - 50.0 °F 86% 29.64 in 10.0 mi WSW 17.3 mph 24.2 mph N/A   Overcast
11:55 PM 51.4 °F - 47.7 °F 87% 29.66 in 10.0 mi WSW 17.3 mph 24.2 mph N/A   Overcast